Location: Munkebjergskolens Observatorium
(55.3864°N, 10.3987°E)
Time: 05:28:34
(UTC+02:00)

CAS-6 - Pass Details

Date: 31 March 2023
Orbit: 610 x 632 km, 97.9° (Epoch: 31 May)

Event Time Altitude Azimuth Distance (km) Brightness Sun altitude
Exits shadow 00:38:45 19° 285° (WNW) 1,481 ? -30.0°
Drops below altitude 10° 00:41:12 10° 319° (NW) 2,008 ? -30.0°
Sets 00:43:56 0° 336° (NNW) 2,925 ? -30.1°
